Location: Greenwich
(51.4790°N, 0.0090°E)
Time: 05:04:21
(UTC+01:00)

ISS - Visible Passes

Search period start: 12 May 2026 00:00
Search period end: 22 May 2026 00:00
Orbit: 414 x 424 km, 51.6° (Epoch: 11 May)

Date Brightness Start Highest point End Pass type
(mag) Time Alt. Az. Time Alt. Az. Time Alt. Az.
12 May -1.0 01:32:15 10° W 01:32:18 10° W 01:32:18 10° W visible
12 May -3.7 21:31:07 10° WSW 21:34:23 55° SSE 21:37:41 10° E visible
12 May -3.8 23:07:47 10° W 23:11:09 85° N 23:13:26 19° E visible
13 May -2.3 00:44:37 10° W 00:46:22 28° W 00:46:22 28° W visible
13 May -3.8 22:20:08 10° W 22:23:30 89° N 22:26:52 10° E visible
13 May -3.9 23:56:57 10° W 00:00:18 75° SSW 00:00:21 75° S visible
14 May -3.8 21:32:30 10° WSW 21:35:51 82° SSE 21:39:12 10° E visible
14 May -3.9 23:09:19 10° W 23:12:40 87° S 23:14:19 28° ESE visible
15 May -1.6 00:46:11 10° W 00:47:14 17° W 00:47:14 17° W visible
15 May -3.8 22:21:39 10° W 22:25:00 87° N 22:28:14 11° E visible
15 May -3.1 23:58:29 10° W 00:01:10 41° SW 00:01:10 41° SW visible
16 May -3.7 21:33:58 10° W 21:37:20 85° N 21:40:41 10° E visible
16 May -3.8 23:10:47 10° W 23:14:06 61° SSW 23:15:05 39° SE visible
17 May -3.8 22:23:06 10° W 22:26:27 75° SSW 22:29:00 16° ESE visible
18 May -2.0 00:00:08 10° W 00:01:56 21° WSW 00:01:56 21° WSW visible
18 May -3.8 21:35:25 10° W 21:38:46 87° S 21:42:08 10° E visible
18 May -3.0 23:12:18 10° W 23:15:22 34° SSW 23:15:51 32° S visible
19 May -3.3 22:24:33 10° W 22:27:46 46° SSW 22:29:47 20° SE visible
20 May -1.1 00:02:30 10° WSW 00:02:42 11° WSW 00:02:42 11° WSW visible
20 May -3.6 21:36:48 10° W 21:40:07 61° SSW 21:43:25 10° ESE visible
20 May -1.9 23:14:07 10° W 23:16:27 18° SW 23:16:39 18° SSW visible
21 May -2.3 22:26:06 10° W 22:28:55 25° SSW 22:30:37 17° S visible
